www.pogodaiklimat.ru

Погода и климат >> Архив погоды >> Канада >> Medicine Hat Arpt


ПОГОДА в Medicine Hat Arpt

  • Прогноз погоды в Medicine Hat Arpt
  • Монитор погоды в Medicine Hat Arpt
  • Климат города

АРХИВ ПОГОДЫ в Medicine Hat Arpt

Время (UTC), дата Ветер
(напр.,м/с)
 
Видим.   Явления Облачность Т
(С)
Тd
(С)
f
(%)
Тe
(С)
Тes
(С)
Комфортность P
(гПа)
Po
(гПа)
Тmin
(С)
Tmax
(С)
R
(мм)
R24
(мм)
S
(см)
06 23.04 СЗ 1 н/о н/о -26.7 -29.1 80 -31 -31 опасность
обморожения
1033.5 1023.4 -26.7 -17.9
09 23.04 Ю 3 н/о н/о -26.5 -29.1 79 -36 -36 опасность
обморожения
1033.5 1023.4
12 23.04 Ю 3 н/о н/о -26.0 -28.6 79 -34 -34 опасность
обморожения
1033.4 1023.3 -28.1 -17.9
15 23.04 Ю 3 н/о н/о -25.3 -27.7 80 -34 -34 опасность
обморожения
1032.8 1022.7
18 23.04 Ю 4 н/о н/о -24.4 -26.8 80 -34 -34 опасность
обморожения
1032.1 1022.0 -28.1 -23.9
21 23.04 Ю 4 н/о н/о -23.9 -26.3 80 -33 -33 опасность
обморожения
1031.8 1021.7
00 24.04 н/о н/о -23.6 -25.9 81 1031.0 1020.9 -28.1 -21.4
03 24.04 С 2 н/о н/о -24.7 -27.0 81 -31 -31 опасность
обморожения
1030.0 1019.9
06 24.04 СЗ 2 н/о н/о -25.2 -27.6 80 -31 -31 опасность
обморожения
1029.2 1019.1 -28.1 -21.4
09 24.04 С 2 н/о н/о -26.6 -29.2 79 -32 -32 опасность
обморожения
1028.6 1018.5
12 24.04 С 2 н/о н/о -26.6 -29.2 79 -34 -34 опасность
обморожения
1027.8 1017.7 -27.2 -21.4
15 24.04 С 2 н/о н/о -24.1 -26.8 78 -29 -29 1026.8 1016.8
18 24.04 С 4 н/о н/о -22.1 -24.5 81 -31 -31 опасность
обморожения
1025.1 1015.1 -27.2 -22.1
21 24.04 С 3 н/о н/о -21.4 -23.6 82 -29 -29 1024.0 1014.0
00 25.04 С 3 н/о н/о -22.4 -24.5 83 -31 -31 опасность
обморожения
1022.6 1012.6 -27.2 -21.2
03 25.04 З 3 н/о н/о -24.4 -26.5 83 -32 -32 опасность
обморожения
1021.2 1011.2
06 25.04 З 5 н/о н/о -24.9 -27.2 81 -36 -36 опасность
обморожения
1020.1 1010.2 -27.2 -21.2
09 25.04 З 4 н/о н/о -25.0 -27.5 80 -35 -35 опасность
обморожения
1019.7 1009.8
12 25.04 С 1 н/о н/о -23.4 -25.8 81 -24 -24 1019.5 1009.6 -25.4 -21.2
15 25.04 штиль 0 н/о н/о -21.8 -24.2 81 -22 -22 1019.0 1009.1
18 25.04 З 5 н/о н/о -23.4 -25.4 84 -34 -34 опасность
обморожения
1018.9 1009.0 -25.4 -21.3
21 25.04 СВ 2 н/о н/о -21.4 -23.6 82 -26 -26 1019.2 1009.3
00 26.04 В 2 н/о н/о -22.6 -24.7 83 -28 -28 1019.3 1009.4 -25.4 -20.7
03 26.04 Ю 2 н/о н/о -23.1 -25.2 83 -28 -28 1019.3 1009.4
06 26.04 Ю 2 н/о н/о -23.6 -25.8 82 -30 -30 1019.0 1009.1 -25.4 -20.7
09 26.04 ЮЗ 2 н/о н/о -24.1 -26.3 82 -29 -29 1018.7 1008.8
12 26.04 Ю 1 н/о н/о -24.3 -26.6 81 -28 -28 1017.8 1007.9 -24.4 -20.7
15 26.04 ЮВ 1 н/о н/о -23.4 -25.7 81 -27 -27 1016.6 1006.7
18 26.04 Ю 2 н/о н/о -23.6 -26.0 81 -30 -30 1015.4 1005.5 -24.4 -23.1
21 26.04 СВ 1 н/о н/о -21.7 -23.9 82 -25 -25 1014.5 1004.6
00 27.04 З 4 н/о н/о -22.6 -24.7 83 -32 -32 опасность
обморожения
1013.5 1003.6 -24.4 -21.2
03 27.04 СЗ 2 н/о н/о -22.7 -24.8 83 -29 -29 1013.0 1003.1
06 27.04 СЗ 2 н/о н/о -23.0 -25.2 82 -29 -29 1012.2 1002.3 -24.4 -21.2
09 27.04 СЗ 3 н/о н/о -23.0 -25.2 82 -30 -30 1011.8 1002.0
12 27.04 З 8 н/о н/о -23.5 -25.7 82 -37 -37 опасность
обморожения
1011.4 1001.6 -23.6 -21.2
15 27.04 З 7 н/о н/о -23.4 -25.6 82 -36 -36 опасность
обморожения
1011.2 1001.4
18 27.04 В 2 н/о н/о -21.3 -23.6 82 -27 -27 1010.8 1001.0 -23.6 -20.8
21 27.04 В 2 н/о н/о -21.6 -23.7 83 -28 -28 1011.6 1001.8
00 28.04 СВ 2 н/о н/о -22.3 -24.4 83 -27 -27 1012.6 1002.7 -23.6 -20.8
03 28.04 ЮЗ 1 н/о н/о -22.1 -24.2 83 -25 -25 1013.6 1003.7
06 28.04 З 9 н/о н/о -20.6 -22.6 84 -34 -34 опасность
обморожения
1014.3 1004.5 -23.6 -20.6 6
09 28.04 Ю 9 н/о н/о -23.1 -25.1 84 -37 -37 опасность
обморожения
1016.0 1006.1
12 28.04 Ю 9 н/о н/о -23.1 -25.4 81 -37 -37 опасность
обморожения
1017.7 1007.8 -23.3 -20.6
15 28.04 Ю 9 н/о н/о -22.6 -24.7 83 -36 -36 опасность
обморожения
1018.8 1008.9
18 28.04 Ю 8 н/о н/о -21.8 -23.9 83 -35 -35 опасность
обморожения
1019.7 1009.8 -23.3 -20.3
21 28.04 Ю 8 н/о н/о -21.5 -23.6 83 -35 -35 опасность
обморожения
1020.9 1011.0
00 29.04 Ю 8 н/о н/о -21.5 -23.5 84 -35 -35 опасность
обморожения
1022.2 1012.3 -23.3 -21.3
03 29.04 Ю 7 н/о н/о -21.5 -23.5 84 -34 -34 опасность
обморожения
1023.2 1013.3
06 29.04 Ю 8 н/о н/о -21.8 -23.9 83 -35 -35 опасность
обморожения
1023.8 1013.9 -23.3 -20.3 7
09 29.04 Ю 8 н/о н/о -21.8 -23.9 83 -35 -35 опасность
обморожения
1024.6 1014.7
12 29.04 Ю 8 н/о н/о -21.5 -23.5 84 -35 -35 опасность
обморожения
1025.2 1015.3 -21.9 -20.3
15 29.04 Ю 8 н/о н/о -20.7 -22.7 84 -33 -33 опасность
обморожения
1025.0 1015.1
18 29.04 Ю 6 н/о н/о -18.7 -20.6 85 -29 -29 1023.7 1013.8 -21.9 -18.6
21 29.04 З 10 н/о н/о -15.9 -17.3 89 -28 -28 1022.3 1012.5
00 30.04 З 11 н/о н/о -15.3 -16.6 90 -28 -28 1021.7 1011.9 -21.9 -15.0

 

Местоположение метеостанции Medicine Hat Arpt (Канада): широта 50.02 долгота -110.70 высота над уровнем моря 716 м.

В архиве по умолчанию представлена погода в Medicine Hat Arpt за последнюю неделю. Архивные данные за месяц целиком и за предыдущие месяцы, начиная с января 2011 года, Вы можете получить, выбрав интересующий диапазон дат из раскрывающегося списка и нажав кнопку "Ввод!".

Внимание! Время в таблицах - всемирное. Для получения местного времени необходимо прибавить поправку, которая в Medicine Hat Arpt равна -7 ч.

Смотрите также архив погоды в соседних городах и на ближайших метеорологических станциях:

Погода в Seven Persons Agdm (Канада) (18 км)
Погода в Irvine Agcm (Канада) (32 км)
Погода в Bow Island Agdm (Канада) (46 км)
Погода в Schuler Radar (Канада) (48 км)
Погода в Schuler Agdm (Канада) (59 км)
Погода в Bow Island (Канада) (60 км)
Погода в Grassy Lake (Канада) (73 км)
Погода в Foremost Agdm (Канада) (79 км)
Погода в Etzicom Agcm (Канада) (81 км)
Погода в Atlee (Канада) (89 км)

Пояснения к столбцам:

Ветер - указаны скорость ветра в м/с - средняя за 10 мин, порывы в срок и между сроками (в фигурных скобках) и направление, откуда дует ветер: С - северный, СВ - северо-восточный, В - восточный, ЮВ - юго-восточный, Ю - южный, ЮЗ - юго-западный, З - западный, СЗ - северо-западный.
Видимость - горизонтальная дальность видимости в метрах или километрах. При видимости от 1 до 10 км при отсутствии осадков обычно наблюдается дымка, при ухудшении видимости до 1 км и менее - туман. В сухую погоду видимость может ухудшаться дымом, пылью или мглою.
Явления - указаны атмосферные явления, наблюдавшиеся в срок или в последний час перед сроком; фигурными скобками обозначены явления, наблюдавшиеся между сроками (за 1-3 часа до срока); квадратными скобками обозначены град или гололедные отложения с указанием их диаметра в мм.
Облачность - указаны через наклонную черту общая и нижняя облачность в баллах и высота нижней границы облаков в метрах; квадратными скобками обозначены формы облаков: Ci - перистые, Cs - перисто-слоистые, Cc - перисто-кучевые, Ac - высококучевые, As - высокослоистые, Sc - слоисто-кучевые, Ns - слоисто-дождевые, Cu - кучевые, Cb - кучево-дождевые. Подробнее классификацию облаков см. в Атласе облаков (PDF).
T - Температура воздуха - температура, измеренная на высоте 2 м над землей.
Td - Температура точки росы - температура, при понижении до которой содержащийся в воздухе водяной пар достигнет насыщения.
f - Относительная влажность воздуха - влажноcть воздуха, измеренная на высоте 2 м над землей.
Te - Эффективная температура - температура, которую ощущает одетый по сезону человек в тени. Характеристика душности погоды. При расчете учитывается влияние влажности воздуха и скорости ветра на теплоощущения человека.
Tes - Эффективная температура на солнце - температура, которую ощущает человек, с поправкой на солнечный нагрев. Характеристика знойности погоды. Зависит от высоты солнца над горизонтом, облачности и скорости ветра. Ночью, в пасмурную погоду, а также при ветре 12 м/с и более поправка равна нулю.
P - Атмосферное давление - приведенное к уровню моря атмосферное давление.
Po - Атмосферное давление - измеренное на уровне метеостанции атмосферное давление.
Tmin - Минимальная температура - минимум температуры воздуха на высоте 2 м над землей.
Tmax - Максимальная температура - максимум температуры воздуха на высоте 2 м над землей.
R - Количество осадков - Количество выпавших осадков за период времени, мм. При наведении курсора мыши на число - период времени, за который выпало указанное количество осадков.
R24 - Количество осадков - Количество выпавших осадков за 24 часа, мм.
S - Снежный покров - Высота снежного покрова, см. При наведении курсора мыши на число - состояние снежного покрова и степень покрытия местности в баллах.